Main page
Satellite images Climate Cyclones Lightning AirportsFAQ Languages Contact Newsletter About
Weather : Europe Africa North America South America Asia Australia-Oceania Others

, Penang, Penang International Airport

48601

latitude: , longitude: Malaysia, elevation: 05-18N m


METAR: WMKP 142230Z 36003KT 330V030 8000 FEW020 SCT140 BKN270 25/24 Q1010 NOSIG